User: anonymous   Login
Location: Ústí nad Labem
(50.6611°N, 14.0531°E)
Time: 14:33:49
(UTC+02:00)
Language:

Hubble Space Telescope - Orbit

View from above orbital plane
View from above orbital plane
View from above satellite
View from above satellite

Ground track
Ground track

The orbit data is extracted from the following two-line orbital elements,

1 20580U 90037B   24104.19871790  .00005874  00000-0  28231-3 0  9990
2 20580  28.4692  60.2311 0002662  47.3292 312.7524 15.16684019667413
Epoch (UTC): 13 April 2024 04:46:09
Eccentricity: 0.0002662
inclination: 28.4692°
perigee height: 514 km
apogee height: 518 km
right ascension of ascending node: 60.2311°
argument of perigee: 47.3292°
revolutions per day: 15.16684019
mean anomaly at epoch: 312.7524°
orbit number at epoch: 66741

The dashed part of the orbit path shows where the satellite is in the earth's shadow,  

DLR